Home > Weather > Netherlands > Amersfoort > Past weeks

Flag for Netherlands Weather past 2 weeks in Amersfoort, Netherlands

48 °F

Drizzle. Broken clouds.

Feels Like: 45 °F
Forecast: 47 / 51 °F
Wind: 7 mph from Southwest

Location: Deelen

Current Time: Dec 1, 2015 at 12:51:55 PM

Latest Report: Dec 1, 2015 at 12:25 PM

Visibility: 4 mi

Pressure: 30.21 "Hg

Humidity: 94%

Dew point: 46 °F

Location of AmersfoortLocation

Historic Weather in Amersfoort — Graph


Amersfoort temperature yesterday

Maximum temperature yesterday: 54 °F (at 9:55 PM)
Minimum temperature yesterday: 43 °F (at 7:55 AM)
Average temperature yesterday: 48 °F

Past Weeks' High & Low Weather Summary

High59 °F (Nov 17, 8:25 PM)100% (Nov 16, 5:25 PM)30.21 "Hg (Nov 16, 5:25 PM)
Low27 °F (Nov 23, 8:25 AM)66% (Nov 23, 1:55 PM)29.33 "Hg (Nov 21, 6:25 AM)
Average44 °F90%29.81 "Hg
* Reported Nov 16 11:25 AM — Dec 1 11:25 AM, Amersfoort, Weather by CustomWeather, © 2015

Note: Actual official high and low records may vary slightly from our data, if they occured in-between our weather recording intervals... More about our weather records


Amersfoort weather history for previous 24 hours

Time TempWeatherWind HumidityBarometerVisibility
11:25 AM
Tue, Dec 1
46 °FFog.3 mph100%30.21 "Hg5 mi
10:55 AM46 °FFog.5 mph100%30.18 "Hg4 mi
10:25 AM46 °FFog.6 mph100%30.18 "Hg4 mi
9:55 AM45 °FFog.6 mph100%30.18 "Hg6 mi
8:55 AM43 °FMostly cloudy.5 mph100%30.15 "HgN/A
7:55 AM43 °FOvercast.6 mph100%30.15 "HgN/A
7:25 AM43 °FOvercast.3 mph100%30.15 "HgN/A
6:55 AM43 °FOvercast.5 mph100%30.12 "HgN/A
6:25 AM45 °FOvercast.5 mph93%30.12 "HgN/A
5:55 AM43 °FOvercast.3 mph100%30.12 "HgN/A
5:25 AM45 °FOvercast.2 mph93%30.09 "HgN/A
4:55 AM45 °FOvercast.5 mph93%30.09 "HgN/A
4:25 AM45 °FMostly cloudy.5 mph93%30.07 "HgN/A
3:55 AM45 °FOvercast.3 mph93%30.07 "HgN/A
3:25 AM45 °FOvercast.3 mph93%30.04 "HgN/A
2:55 AM45 °FOvercast.5 mph100%30.04 "HgN/A
1:55 AM46 °FMostly cloudy.8 mph93%30.01 "HgN/A
12:55 AM50 °FPartly cloudy.9 mph88%29.95 "HgN/A
11:55 PM
Mon, Nov 30
52 °FOvercast.14 mph88%29.92 "HgN/A
11:25 PM54 °FLight rain. Partly cloudy.18 mph94%29.89 "HgN/A
10:55 PM54 °FLight rain. Partly cloudy.20 mph94%29.86 "Hg4 mi
10:25 PM54 °FPartly cloudy.17 mph94%29.83 "Hg2 mi
9:55 PM54 °FPartly cloudy.18 mph94%29.83 "Hg4 mi
9:25 PM52 °FLight rain. Partly cloudy.20 mph100%29.80 "Hg2 mi
8:55 PM52 °FLight rain. Partly cloudy.21 mph100%29.80 "Hg2 mi
8:25 PM52 °FSprinkles. Partly cloudy.22 mph100%29.80 "Hg2 mi
7:55 PM52 °FPartly cloudy.24 mph94%29.77 "Hg2 mi
7:25 PM52 °FDrizzle. Overcast.24 mph94%29.77 "Hg2 mi
6:55 PM52 °FDrizzle. Mostly cloudy.23 mph94%29.77 "HgN/A
6:25 PM52 °FRain. Partly cloudy.24 mph94%29.77 "Hg4 mi
5:55 PM50 °FLight rain. Mostly cloudy.24 mph100%29.77 "Hg4 mi
5:25 PM50 °FLight rain. Mostly cloudy.24 mph100%29.77 "Hg4 mi
4:55 PM50 °FRain. Passing clouds.21 mph94%29.80 "Hg3 mi
4:25 PM50 °FSprinkles. Mostly cloudy.21 mph94%29.80 "Hg6 mi
3:55 PM50 °FLight rain. Partly sunny.23 mph94%29.80 "HgN/A
3:25 PM50 °FLight rain. Partly sunny.22 mph94%29.83 "Hg5 mi
2:55 PM50 °FDrizzle. Mostly cloudy.21 mph100%29.83 "Hg4 mi
2:25 PM48 °FDrizzle. Broken clouds.15 mph94%29.86 "Hg6 mi
1:55 PM45 °FDrizzle. More clouds than sun.9 mph100%29.89 "Hg4 mi
1:25 PM43 °FDrizzle. More clouds than sun.7 mph100%29.92 "Hg6 mi
12:55 PM43 °FLight rain. Mostly cloudy.7 mph93%29.95 "Hg4 mi
12:25 PM43 °FDrizzle. Overcast.7 mph93%29.95 "HgN/A
Weather by CustomWeather, © 2015

See weather overviewHow to use our weather pages